SCP
0 0 0 0 0 0 0 0 0 0 0 0 0 0 0 0 0 0 0 0 0 0
0 0 0 0 0 0 0 0 0 0 0 0 0 0 0 0 0 0 0 0 0 0
0 0 0 0 0 0 0 0 0 0 0 0 0 0 0 0 0 0 0 0 0 0
0 0 0 0 0 0 0 0 0 0 0 0 0 0 0 0 0 0 0 0 0 0
0 0 0 0 0 0 0 0 0 0 0 0 0 0 0 0 0 0 0 0 0 0
0 0 0 0 0 0 0 0 0 0 0 0 0 0 0 0 0 0 0 0 0 0
0 0 0 0 0 0 0 0 0 0 0 0 0 0 0 0 0 0 0 0 0 0
0 0 0 0 0 0 0 0 0 0 0 0 0 0 0 0 0 0 0 0 0 0
0 0 0 0 0 0 0 0 0 0 0 0 0 0 0 0 0 0 0 0 0 0
0 0 0 0 0 0 0 0 0 0 0 0 0 0 0 0 0 0 0 0 0 0
0 0 0 0 0 0 0 0 0 0 0 0 0 0 0 0 0 0 0 0 0 0
0 0 0 0 0 0 0 0 0 0 0 0 0 0 0 0 0 0 0 0 0 0
0 0 0 0 0 0 0 0 0 0 0 0 0 0 0 0 0 0 0 0 0 0
0 0 0 0 0 0 0 0 0 0 0 0 0 0 0 0 0 0 0 0 0 0
Wind_Speed_500mb
81 78 70 62 60 56 51 47 44 41 39 38 36 33 31 28 24 22 19 19 15 22
86 83 75 66 61 56 52 49 46 44 42 42 40 37 34 32 28 24 21 21 18 29
91 86 78 68 67 62 55 52 51 48 45 44 43 40 38 35 32 28 23 26 28 42
92 90 81 72 70 64 59 56 54 51 48 46 45 43 40 38 35 31 31 35 40 45
93 92 85 77 73 67 61 57 55 53 50 47 47 45 43 41 39 33 38 41 47 44
94 93 87 80 76 69 62 60 59 57 53 50 49 46 45 43 42 36 40 43 47 50
95 93 89 83 78 72 64 62 60 57 53 50 48 47 47 48 45 41 41 42 45 51
93 92 88 83 78 72 65 61 59 58 55 52 49 49 50 50 49 45 44 45 49 52
93 91 86 83 80 74 69 64 63 60 58 55 51 49 50 51 50 48 46 49 55 56
90 89 85 84 83 77 72 68 64 61 59 56 52 50 51 51 51 50 49 50 57 60
84 84 85 85 82 77 72 67 64 64 60 57 53 52 51 50 50 50 50 50 53 57
82 83 84 85 82 77 74 69 67 62 60 59 57 55 52 50 49 52 53 52 54 55
75 79 83 83 80 76 72 68 64 61 61 60 57 56 54 51 49 54 57 56 56 56
70 76 79 80 77 74 72 68 65 63 61 59 58 58 56 50 48 51 60 63 61 59
Wind_Direction_500mb
209 210 211 210 206 206 205 200 195 188 187 187 184 178 174 170 160 151 154 166 178 154
206 209 208 207 206 205 203 199 196 190 187 187 186 181 178 173 168 159 157 170 147 151
205 208 208 206 203 203 201 197 195 191 188 187 188 186 182 176 176 174 165 167 155 150
204 206 206 204 203 201 200 195 195 193 190 185 188 190 184 180 176 174 173 166 164 155
202 204 202 201 200 200 199 195 194 193 192 185 187 192 187 184 179 176 175 172 172 166
200 202 201 198 198 198 196 195 193 194 191 187 187 191 187 187 184 179 178 181 180 182
200 202 200 197 197 196 194 195 195 194 192 191 186 190 189 188 188 183 180 183 186 185
198 201 198 195 195 195 195 196 197 194 191 193 190 189 191 190 190 187 184 183 188 188
198 199 196 193 193 194 194 195 195 195 195 192 192 190 192 194 191 190 191 186 185 186
196 195 193 192 193 194 195 195 195 195 196 195 193 192 194 195 196 196 195 193 188 186
195 194 191 191 194 194 195 196 196 197 196 197 195 195 194 196 197 199 200 199 194 192
194 192 190 192 194 195 196 196 199 198 197 198 196 197 196 198 197 201 202 200 197 197
193 193 193 194 195 196 199 200 199 199 201 202 198 199 200 202 204 202 203 202 200 201
193 194 195 195 197 197 198 200 201 202 202 203 202 203 203 205 209 208 203 203 201 201
Wind_Speed_850mb
81 78 70 62 60 56 51 47 44 41 39 38 36 33 31 28 24 22 19 19 15 22
86 83 75 66 61 56 52 49 46 44 42 42 40 37 34 32 28 24 21 21 18 29
91 86 78 68 67 62 55 52 51 48 45 44 43 40 38 35 32 28 23 26 28 42
92 90 81 72 70 64 59 56 54 51 48 46 45 43 40 38 35 31 31 35 40 45
93 92 85 77 73 67 61 57 55 53 50 47 47 45 43 41 39 33 38 41 47 44
94 93 87 80 76 69 62 60 59 57 53 50 49 46 45 43 42 36 40 43 47 50
95 93 89 83 78 72 64 62 60 57 53 50 48 47 47 48 45 41 41 42 45 51
93 92 88 83 78 72 65 61 59 58 55 52 49 49 50 50 49 45 44 45 49 52
93 91 86 83 80 74 69 64 63 60 58 55 51 49 50 51 50 48 46 49 55 56
90 89 85 84 83 77 72 68 64 61 59 56 52 50 51 51 51 50 49 50 57 60
84 84 85 85 82 77 72 67 64 64 60 57 53 52 51 50 50 50 50 50 53 57
82 83 84 85 82 77 74 69 67 62 60 59 57 55 52 50 49 52 53 52 54 55
75 79 83 83 80 76 72 68 64 61 61 60 57 56 54 51 49 54 57 56 56 56
70 76 79 80 77 74 72 68 65 63 61 59 58 58 56 50 48 51 60 63 61 59
Wind_Direction_850mb
209 210 211 210 206 206 205 200 195 188 187 187 184 178 174 170 160 151 154 166 178 154
206 209 208 207 206 205 203 199 196 190 187 187 186 181 178 173 168 159 157 170 147 151
205 208 208 206 203 203 201 197 195 191 188 187 188 186 182 176 176 174 165 167 155 150
204 206 206 204 203 201 200 195 195 193 190 185 188 190 184 180 176 174 173 166 164 155
202 204 202 201 200 200 199 195 194 193 192 185 187 192 187 184 179 176 175 172 172 166
200 202 201 198 198 198 196 195 193 194 191 187 187 191 187 187 184 179 178 181 180 182
200 202 200 197 197 196 194 195 195 194 192 191 186 190 189 188 188 183 180 183 186 185
198 201 198 195 195 195 195 196 197 194 191 193 190 189 191 190 190 187 184 183 188 188
198 199 196 193 193 194 194 195 195 195 195 192 192 190 192 194 191 190 191 186 185 186
196 195 193 192 193 194 195 195 195 195 196 195 193 192 194 195 196 196 195 193 188 186
195 194 191 191 194 194 195 196 196 197 196 197 195 195 194 196 197 199 200 199 194 192
194 192 190 192 194 195 196 196 199 198 197 198 196 197 196 198 197 201 202 200 197 197
193 193 193 194 195 196 199 200 199 199 201 202 198 199 200 202 204 202 203 202 200 201
193 194 195 195 197 197 198 200 201 202 202 203 202 203 203 205 209 208 203 203 201 201